Weather History for PHLI - January, 2013

Change the Weather History Date:

Thursday, January 3, 2013

  Actual Average Record
Temperature  
Mean Temperature 70 °F 72 °F  
Max Temperature 73 °F 78 °F 86 °F (2006)
Min Temperature 66 °F 66 °F 56 °F (2015)
Degree Days  
Heating Degree Days 0 0  
Month to date heating degree days 0  
Since 1 July heating degree days 0  
Cooling Degree Days 4 7  
Month to date cooling degree days 21  
Year to date cooling degree days 21  
Growing Degree Days 20 (Base 50)    
Moisture  
Dew Point 64 °F    
Average Humidity 76    
Maximum Humidity 90    
Minimum Humidity 62    
Precipitation  
Precipitation 0.02 in 0.13 in 2.07 in (1970)
Month to date precipitation 0.40  
Year to date precipitation 0.40  
Snow  
Snow 0.00 in - - ()
Month to date snowfall  
Since 1 July snowfall  
Snow Depth -    
Sea Level Pressure  
Sea Level Pressure 30.08 in    
Wind  
Wind Speed 18 mph (NNE)    
Max Wind Speed 24 mph    
Max Gust Speed 30 mph    
Visibility 9 miles    
Events Rain    
T = Trace of Precipitation, MM = Missing Value Source: NWS Daily Summary

Daily Weather History Graph

Daily Weather History Graph

Search for Another Location

Airport or City:

Trip Planner

Search our weather history database for the weather conditions in past years. The results will help you decide how hot, cold, wet, or windy it might be!

Date:

Astronomy

Jan. 03, 2013 Rise Set
Actual Time 7:17 AM HST 6:07 PM HST
Civil Twilight 6:52 AM HST 6:31 PM HST
Nautical Twilight 6:25 AM HST 6:59 PM HST
Astronomical Twilight 5:57 AM HST 7:26 PM HST
Moon No Moon Rise 11:22 AM HST (1/3)
Length of Visible Light 11h 38m
Length of Day
10h 50m
Waning Gibbous, 63% of the Moon is Illuminated
Jan 3
Waning Gibbous
Jan 4
Last Quarter
Jan 11
New
Jan 18
First Quarter
Jan 26
Full

Hourly Weather History & Observations

Time (HST) Temp. Dew Point Humidity Pressure Visibility Wind Dir Wind Speed Gust Speed Precip Events Conditions
12:00 AM 69.8 °F 66.2 °F 88% 30.09 in 4.0 mi NE 16.1 mph - 0.02 in Rain Light Rain
12:53 AM 70.0 °F 66.0 °F 87% 30.07 in 9.0 mi NE 17.3 mph - 0.02 in Rain Light Rain
1:53 AM 70.0 °F 64.9 °F 84% 30.06 in 10.0 mi NE 18.4 mph - 0.01 in   Overcast
2:04 AM 69.8 °F 64.4 °F 83% 30.06 in 10.0 mi NE 15.0 mph - N/A   Overcast
2:25 AM 69.8 °F 66.2 °F 88% 30.06 in 10.0 mi NNE 16.1 mph - N/A   Overcast
2:53 AM 70.0 °F 64.0 °F 81% 30.05 in 10.0 mi NE 18.4 mph - N/A   Overcast
3:53 AM 71.1 °F 64.0 °F 78% 30.04 in 10.0 mi NNE 20.7 mph - N/A   Overcast
4:22 AM 69.8 °F 64.4 °F 83% 30.04 in 10.0 mi NE 18.4 mph - 0.00 in   Overcast
4:53 AM 70.0 °F 64.0 °F 81% 30.04 in 10.0 mi NE 21.9 mph 28.8 mph 0.00 in   Overcast
5:18 AM 69.8 °F 64.4 °F 83% 30.05 in 7.0 mi NE 20.7 mph 25.3 mph 0.00 in Rain Light Rain
5:53 AM 66.9 °F 64.0 °F 90% 30.05 in 8.0 mi NNW 15.0 mph - 0.01 in Rain Light Rain
6:53 AM 68.0 °F 64.9 °F 90% 30.06 in 10.0 mi North 10.4 mph - 0.01 in   Overcast
7:14 AM 69.8 °F 64.4 °F 83% 30.07 in 10.0 mi NNE 19.6 mph - N/A   Overcast
7:53 AM 71.1 °F 63.0 °F 75% 30.07 in 10.0 mi NNE 19.6 mph - N/A   Overcast
8:53 AM 72.0 °F 63.0 °F 73% 30.09 in 10.0 mi NNE 18.4 mph - N/A   Overcast
9:05 AM 73.4 °F 64.4 °F 73% 30.10 in 10.0 mi NE 19.6 mph - N/A   Overcast
9:18 AM 71.6 °F 62.6 °F 73% 30.11 in 10.0 mi NE 20.7 mph - N/A   Overcast
9:53 AM 73.0 °F 63.0 °F 71% 30.11 in 10.0 mi NE 19.6 mph - N/A   Overcast
10:53 AM 73.0 °F 62.1 °F 68% 30.12 in 10.0 mi NNE 20.7 mph - N/A   Overcast
11:24 AM 73.4 °F 62.6 °F 69% 30.11 in 10.0 mi NNE 19.6 mph - N/A   Overcast
11:50 AM 73.4 °F 62.6 °F 69% 30.10 in 10.0 mi NNE 18.4 mph - N/A   Overcast
11:53 AM 73.0 °F 62.1 °F 68% 30.10 in 10.0 mi NNE 17.3 mph - N/A   Overcast
12:14 PM 73.4 °F 62.6 °F 69% 30.10 in 10.0 mi NE 17.3 mph - N/A   Overcast
12:53 PM 73.9 °F 62.1 °F 66% 30.07 in 10.0 mi NNE 17.3 mph 24.2 mph N/A   Overcast
1:53 PM 73.0 °F 63.0 °F 71% 30.05 in 10.0 mi NNE 19.6 mph 24.2 mph N/A   Overcast
2:13 PM 73.4 °F 62.6 °F 69% 30.05 in 10.0 mi NNE 20.7 mph - N/A   Overcast
2:46 PM 71.6 °F 62.6 °F 73% 30.05 in 8.0 mi NNE 20.7 mph 29.9 mph N/A   Overcast
2:53 PM 71.1 °F 63.0 °F 75% 30.05 in 8.0 mi NNE 19.6 mph - 0.00 in Rain Light Rain
3:53 PM 70.0 °F 63.0 °F 78% 30.06 in 7.0 mi North 17.3 mph 24.2 mph 0.00 in Rain Light Rain
4:53 PM 71.1 °F 62.1 °F 73% 30.06 in 8.0 mi NE 19.6 mph - 0.00 in   Overcast
5:53 PM 70.0 °F 63.0 °F 78% 30.08 in 7.0 mi NE 15.0 mph 26.5 mph 0.00 in Rain Light Rain
6:53 PM 72.0 °F 63.0 °F 73% 30.09 in 10.0 mi NE 23.0 mph - 0.00 in   Overcast
7:53 PM 72.0 °F 63.0 °F 73% 30.12 in 10.0 mi NE 19.6 mph - N/A   Overcast
8:53 PM 71.1 °F 64.0 °F 78% 30.13 in 6.0 mi NE 24.2 mph 29.9 mph 0.01 in Rain Light Rain
9:03 PM 69.8 °F 64.4 °F 83% 30.13 in 10.0 mi NE 18.4 mph - 0.00 in   Overcast
9:53 PM 71.1 °F 64.0 °F 78% 30.13 in 10.0 mi NE 23.0 mph - 0.00 in   Overcast
10:53 PM 72.0 °F 63.0 °F 73% 30.12 in 10.0 mi NE 24.2 mph - 0.00 in   Overcast
11:53 PM 71.1 °F 64.9 °F 81% 30.11 in 10.0 mi NE 20.7 mph 24.2 mph 0.00 in   Overcast